Retour au catalogue

CONNECTA IOT-5

ActifCommunicationsSSO
NORAD 62703·PAYLOAD·🇹🇷 Turkey

Lancé Jan 14, 2025 depuis Vandenberg Space Force Base

Loading…

Prochains Passages (prochaines 24 heures)

TLE

FraisSource: Space-Track

Époque: Sep 14, 2026, 05:07 UTC

1 62703U 25009CY  26257.21335966  .00000779  00000-0  77703-4 0  9992
2 62703  97.6969 334.0896 0003406 121.3036 238.8518 14.94333163 90661

Suivez CONNECTA IOT-5 en temps réel avec AllMySat

Download on the App Store